STARLINK-35211 (65757 NORAD) Tracking and Keplerian Element Data

This shows tracking and keplerian element data for the satellite.

Feedback or suggestion? Click here.




ElementValue
Catalog65757
NameSTARLINK-35211
Epoch Orbit1436
Epoch Day354.14021767
Epoch Year2025
RAAN342.4263
Inclination53.1589
Eccentricity0.0001573
Argument of Perigee89.0382
Mean Anonmoly271.0799
Mean Motion15.30145592
Decay Rate2.608E-05
L11 65757U 25216Z 25354.14021767 .00002608 00000+0 10032-3 0 9997
L22 65757 53.1589 342.4263 0001573 89.0382 271.0799 15.30145592 14367



Live tracking and technical data element details for STARLINK-35211 (NORAD 65757). STARLINK-35211 can be tracked NOW for your location showing map with azimuth and elevation plus other details from your city location.







IsCatalogInMostPopularTable: catalog: 65757, numindb: 4
Update: records affected: 1



GetName: 65757 STARLINK-35211

Hit Count: updated at: Tue, 10 Feb 2026 03:53:56 GMT